TimeCST,TemperatureF,Dew PointF,Humidity,Sea Level PressureIn,VisibilityMPH,Wind Direction,Wind SpeedMPH,Gust SpeedMPH,PrecipitationIn,Events,Conditions,WindDirDegrees,DateUTC
12:00 AM,78,77,94,29.88,12,Calm,Calm,,,,Mostly Cloudy,,2013-08-16 06:00:00
3:00 AM,77,76,95,29.86,12,Calm,Calm,,,,Mostly Cloudy,,2013-08-16 09:00:00
5:00 AM,78.8,77.0,94,29.86,5.6,Calm,Calm,-,N/A,Thunderstorm,Thunderstorm,0,2013-08-16 11:00:00
6:00 AM,78,77,94,29.89,5,Calm,Calm,,,Rain-Thunderstorm,Thunderstorms and Rain,,2013-08-16 12:00:00
6:00 AM,78.8,77.0,94,29.89,5.0,Calm,Calm,-,N/A,Rain-Thunderstorm,Thunderstorms and Rain,0,2013-08-16 12:00:00
7:00 AM,78.8,77.0,94,29.89,5.0,SE,4.6,-,N/A,Rain-Thunderstorm,Thunderstorms and Rain,130,2013-08-16 13:00:00
8:00 AM,78.8,77.0,94,29.89,5.0,ESE,3.5,-,N/A,Rain-Thunderstorm,Thunderstorms and Rain,110,2013-08-16 14:00:00
8:35 AM,78.8,77.0,94,29.91,5.0,Calm,Calm,-,N/A,Rain,Light Rain,0,2013-08-16 14:35:00
9:00 AM,76,74,92,29.92,6,Calm,Calm,,,Rain,Light Rain,,2013-08-16 15:00:00
9:00 AM,75.2,73.4,94,29.92,5.6,Calm,Calm,-,N/A,Rain,Light Rain,0,2013-08-16 15:00:00
10:00 AM,77.0,75.2,94,29.92,6.2,WSW,3.5,-,N/A,Rain,Light Rain,250,2013-08-16 16:00:00
11:00 AM,78.8,77.0,94,29.91,6.2,WSW,4.6,-,N/A,,Mostly Cloudy,250,2013-08-16 17:00:00
12:00 PM,84.2,78.8,84,29.89,6.2,WNW,2.3,-,N/A,,Mostly Cloudy,290,2013-08-16 18:00:00
1:00 PM,86.0,77.0,74,29.85,6.2,East,3.5,-,N/A,,Mostly Cloudy,80,2013-08-16 19:00:00
2:00 PM,87.8,77.0,70,29.83,6.2,ENE,8.1,-,N/A,,Mostly Cloudy,70,2013-08-16 20:00:00
3:00 PM,87,78,69,29.83,14,East,6.9,,,,Scattered Clouds,80,2013-08-16 21:00:00
3:00 PM,87.8,78.8,75,29.82,6.2,East,6.9,-,N/A,,Mostly Cloudy,80,2013-08-16 21:00:00
4:00 PM,87.8,78.8,75,29.83,6.2,East,6.9,-,N/A,,Mostly Cloudy,80,2013-08-16 22:00:00
5:00 PM,86.0,78.8,79,29.84,6.2,East,8.1,-,N/A,,Mostly Cloudy,80,2013-08-16 23:00:00
6:00 PM,84,79,80,29.87,12,ESE,4.6,,,,Scattered Clouds,110,2013-08-17 00:00:00
6:00 PM,84.2,78.8,84,29.86,6.2,ESE,4.6,-,N/A,,Mostly Cloudy,110,2013-08-17 00:00:00
9:00 PM,82,78,84,29.92,12,ESE,4.6,,,Rain,Light Rain Showers,120,2013-08-17 03:00:00